{"data":{"norad_id":59259,"epoch":"2026-09-21T18:58:56.059104Z","epoch_age_seconds":50688,"freshness":"FRESH","line1":"1 59259U 24050F   26264.79092661  .00009428  00000+0  28967-3 0  9998","line2":"2 59259  53.1601 349.3394 0001417 104.2841 255.8319 15.34417431140580","mean_motion":15.34417431,"eccentricity":0.0001417,"inclination_deg":53.1601,"raan_deg":349.3394,"arg_perigee_deg":104.2841,"mean_anomaly_deg":255.8319,"bstar":0.00028967,"rev_number":14058,"period_min":93.846691969703,"perigee_km":461.68209237132,"apogee_km":463.62077181297,"semimajor_km":6840.7884320921,"source":"CELESTRAK","updated_at":"2026-09-22T09:00:48.871805Z"}}